EW8226 Weather Reports


Display with metric or nautical units.
time (UTC)temp
F
wind
direction
speed
MPH
gust
MPH
rain 1hr
in
rain 24hr
in
rain mn
in
humidity
%
barometer
mb
20260507113037 60 355 0.0 0.0 0.00 0.00 0.00 57 1014.7
20260507111519 60 84 0.0 0.0 0.00 0.00 0.00 59 1014.8
20260507110017 58 344 0.0 0.0 0.00 0.00 0.00 62 1015.0
20260507104515 58 340 0.0 0.0 0.00 0.00 0.00 62 1015.0
20260507103019 57 316 0.0 0.0 0.00 0.00 0.00 63 1015.1
20260507101517 58 360 0.0 0.0 0.00 0.00 0.00 61 1015.1
20260507100014 57 328 0.0 0.0 0.00 0.00 0.00 63 1015.2
20260507094516 58 342 0.0 0.0 0.00 0.00 0.00 63 1015.1
20260507093013 57 313 0.0 0.0 0.00 0.00 0.00 63 1015.1
20260507091510 56 343 0.0 0.0 0.00 0.00 0.00 67 1015.0
20260507090010 56 334 0.0 0.0 0.00 0.00 0.00 67 1015.0
20260507084510 56 97 0.0 0.0 0.00 0.00 0.00 68 1015.1
20260507083010 55 34 0.0 0.0 0.00 0.00 0.00 70 1015.1
20260507081510 54 342 0.0 1.0 0.00 0.00 0.00 70 1015.0
20260507080011 54 69 0.0 0.0 0.00 0.00 0.00 71 1015.1
20260507074508 53 67 0.0 0.0 0.00 0.00 0.00 72 1015.0
20260507073006 52 62 0.0 0.0 0.00 0.00 0.00 77 1014.8
20260507071505 52 66 0.0 0.0 0.00 0.00 0.00 80 1014.7
20260507070012 51 360 0.0 0.0 0.00 0.00 0.00 81 1014.6
20260507064504 51 360 0.0 0.0 0.00 0.00 0.00 83 1014.6
20260507063004 51 360 0.0 0.0 0.00 0.00 0.00 83 1014.6
20260507061503 51 360 0.0 0.0 0.00 0.00 0.00 84 1014.5
20260507060001 50 360 0.0 0.0 0.00 0.00 0.00 84 1014.4
20260507054600 50 360 0.0 0.0 0.00 0.00 0.00 84 1014.3
20260507053100 50 360 0.0 0.0 0.00 0.00 0.00 84 1014.2
20260507051558 50 360 0.0 0.0 0.00 0.00 0.00 84 1014.1
20260507050057 50 360 0.0 0.0 0.00 0.00 0.00 84 1014.0
20260507044609 50 355 0.0 0.0 0.00 0.00 0.00 83 1013.8
20260507043104 50 291 0.0 0.0 0.00 0.00 0.00 83 1013.7
20260507041557 50 291 0.0 0.0 0.00 0.00 0.00 82 1013.7
20260507040053 50 290 0.0 0.0 0.00 0.00 0.00 82 1013.6
20260507034554 50 292 0.0 0.0 0.00 0.00 0.00 82 1013.6
20260507033053 50 292 0.0 0.0 0.00 0.00 0.00 81 1013.5
20260507031551 50 292 0.0 0.0 0.00 0.00 0.00 81 1013.6
20260507030051 50 292 0.0 0.0 0.00 0.00 0.00 80 1013.6
20260507024553 51 292 0.0 0.0 0.00 0.00 0.00 80 1013.5
20260507023103 51 290 0.0 0.0 0.00 0.00 0.00 80 1013.5
20260507021550 51 331 0.0 0.0 0.00 0.00 0.00 79 1013.6
20260507020057 51 330 0.0 0.0 0.00 0.00 0.00 79 1013.5
20260507014549 51 304 0.0 0.0 0.00 0.00 0.00 79 1013.4
20260507013048 51 302 0.0 0.0 0.00 0.00 0.00 78 1013.5
20260507011549 51 307 0.0 0.0 0.00 0.00 0.00 78 1013.4
20260507010046 51 305 0.0 0.0 0.00 0.00 0.00 78 1013.4
20260507004544 51 355 0.0 0.0 0.00 0.00 0.00 77 1013.4
20260507003045 51 338 0.0 0.0 0.00 0.00 0.00 77 1013.4
20260507001607 51 338 0.0 0.0 0.00 0.00 0.00 77 1013.4
20260507000045 51 329 0.0 0.0 0.00 0.00 0.00 77 1013.4
20260506234551 51 330 0.0 0.0 0.00 0.00 0.00 76 1013.3
20260506233043 51 296 0.0 0.0 0.00 0.00 0.00 77 1013.2
20260506231544 51 284 0.0 0.0 0.00 0.00 0.00 76 1013.3
20260506230053 51 280 0.0 0.0 0.00 0.00 0.00 76 1013.4
20260506224542 51 327 0.0 0.0 0.00 0.00 0.00 76 1013.4
20260506223041 52 261 0.0 0.0 0.00 0.00 0.00 75 1013.4
20260506221549 52 299 0.0 0.0 0.00 0.00 0.00 75 1013.3
20260506220040 51 340 0.0 0.0 0.00 0.00 0.00 75 1013.2
20260506214539 51 328 0.0 0.0 0.00 0.00 0.00 76 1013.1
20260506213037 51 330 0.0 0.0 0.00 0.00 0.00 76 1013.0
20260506211536 51 346 0.0 0.0 0.00 0.00 0.00 75 1012.9
20260506210049 51 332 0.0 0.0 0.00 0.00 0.00 75 1012.9
20260506204537 51 348 0.0 0.0 0.00 0.00 0.00 74 1012.8
20260506203037 52 346 0.0 0.0 0.00 0.00 0.00 74 1012.7
20260506201532 52 327 0.0 0.0 0.00 0.00 0.00 73 1012.6
20260506200035 52 331 0.0 0.0 0.00 0.00 0.00 72 1012.5
20260506194532 52 32 0.0 1.0 0.00 0.00 0.00 71 1012.4
20260506193036 52 355 0.0 1.0 0.00 0.00 0.00 71 1012.1
20260506191529 53 355 0.0 1.0 0.00 0.00 0.00 70 1012.0
20260506190026 53 285 0.0 1.0 0.00 0.00 0.00 70 1011.9
20260506184527 53 355 0.0 0.0 0.00 0.00 0.00 69 1011.7
20260506183018 54 342 0.0 0.0 0.00 0.00 0.00 68 1011.7
20260506181521 54 355 0.0 0.0 0.00 0.00 0.00 66 1011.5
20260506180017 54 5 0.0 2.0 0.00 0.00 0.00 66 1011.3
20260506174515 54 21 0.0 0.0 0.00 0.00 0.00 67 1011.2
20260506173012 54 325 0.0 1.0 0.00 0.00 0.00 66 1011.1
20260506171510 56 17 0.0 1.0 0.00 0.00 0.00 61 1011.0
20260506170008 57 304 0.0 1.0 0.00 0.00 0.00 59 1010.9
20260506164526 57 19 0.0 1.0 0.00 0.00 0.00 58 1011.0
20260506163010 57 325 0.0 0.0 0.00 0.00 0.00 57 1010.9
20260506161505 56 336 0.0 0.0 0.00 0.00 0.00 57 1010.9
20260506160007 56 28 0.0 1.0 0.00 0.00 0.00 56 1011.0
20260506154507 56 344 0.0 0.0 0.00 0.00 0.00 56 1011.0
20260506153005 56 281 0.0 1.0 0.00 0.00 0.00 57 1011.0
20260506151504 56 343 0.0 0.0 0.00 0.00 0.00 54 1011.0
20260506150002 57 347 0.0 1.0 0.00 0.00 0.00 53 1010.9
20260506144501 57 341 0.0 1.0 0.00 0.00 0.00 54 1010.9
20260506143100 57 344 0.0 6.0 0.00 0.00 0.00 57 1010.9
20260506141557 57 331 0.0 1.0 0.00 0.00 0.00 58 1011.0
20260506140058 57 21 0.0 0.0 0.00 0.00 0.00 56 1011.0
20260506134557 56 317 0.0 0.0 0.00 0.00 0.00 59 1011.0
20260506133108 57 325 0.0 1.0 0.00 0.00 0.00 59 1011.0
20260506131614 57 348 0.0 1.0 0.00 0.00 0.00 60 1010.9
20260506130054 57 308 0.0 2.0 0.00 0.00 0.00 58 1010.8
20260506124555 57 325 0.0 0.0 0.00 0.00 0.00 60 1010.8
20260506123056 56 343 0.0 2.0 0.00 0.00 0.00 58 1010.6
20260506121557 56 275 0.0 1.0 0.00 0.00 0.00 60 1010.6
20260506114550 58 13 0.0 1.0 0.00 0.00 0.00 60 1010.5